Flag for Germany Weather past 2 weeks in Neunkirchen (Saar), Saarland, Germany

54 °F

Partly sunny.

Feels Like: 54 °F
Forecast: 44 / 61 °F
Wind: 2 mph from North

Location: Saarbruecken / Ensheim

Current Time: Oct 8, 2015 at 7:06:22 PM

Latest Report: Oct 8, 2015 at 6:20 PM

Visibility: N/A

Pressure: 30.15 "Hg

Humidity: 82%

Dew point: 48 °F

Location of Neunkirchen (Saar)Location

Historic Weather in Neunkirchen (Saar) — Graph


Neunkirchen (Saar) temperature yesterday

Maximum temperature yesterday: 59 °F (at 12:20 AM)
Minimum temperature yesterday: 50 °F (at 11:50 PM)
Average temperature yesterday: 55 °F

Past Weeks' High & Low Weather Summary

High68 °F (Oct 3, 4:20 PM)100% (Sep 24, 2:50 AM)30.54 "Hg (Sep 24, 2:50 AM)
Low43 °F (Oct 1, 7:50 AM)37% (Sep 29, 3:20 PM)29.68 "Hg (Oct 6, 8:20 AM)
Average54 °F74%30.15 "Hg
* Reported Sep 23 5:20 PM — Oct 8 5:50 PM, Neunkirchen (Saar), Weather by CustomWeather, © 2015

Note: Actual official high and low records may vary slightly from our data, if they occured in-between our weather recording intervals... More about our weather records


Neunkirchen (Saar) weather history for previous 24 hours

Time TempWeatherWind HumidityBarometerVisibility
5:50 PM
Thu, Oct 8
54 °FPartly sunny.5 mph77%30.15 "HgN/A
5:20 PM54 °FPartly sunny.3 mph77%30.15 "HgN/A
4:50 PM54 °FPartly sunny.2 mph77%30.15 "HgN/A
4:20 PM55 °FPartly sunny.6 mph72%30.15 "HgN/A
3:50 PM55 °FPartly sunny.3 mph72%30.15 "HgN/A
3:20 PM55 °FPartly sunny.5 mph72%30.15 "HgN/A
2:50 PM55 °FBroken clouds.6 mph77%30.15 "HgN/A
2:20 PM55 °FBroken clouds.6 mph77%30.15 "HgN/A
1:50 PM55 °FBroken clouds.3 mph72%30.15 "HgN/A
1:20 PM55 °FBroken clouds.5 mph77%30.15 "HgN/A
12:50 PM55 °FBroken clouds.3 mph77%30.15 "HgN/A
12:20 PM55 °FBroken clouds.3 mph77%30.15 "HgN/A
11:50 AM54 °FPartly sunny.3 mph82%30.12 "HgN/A
11:20 AM54 °FPartly sunny.3 mph88%30.12 "HgN/A
10:50 AM52 °FPartly sunny.3 mph94%30.12 "HgN/A
10:20 AM52 °FPartly sunny.2 mph94%30.12 "HgN/A
9:50 AM50 °FPartly sunny.1 mph94%30.12 "HgN/A
9:20 AM50 °FPartly sunny.1 mph94%30.12 "Hg5 mi
8:50 AM48 °FPartly sunny.1 mph100%30.09 "Hg5 mi
8:20 AM48 °FPassing clouds.2 mph94%30.09 "Hg6 mi
7:50 AM48 °FPassing clouds.3 mph94%30.09 "Hg6 mi
7:20 AM48 °FPassing clouds.3 mph94%30.09 "Hg5 mi
6:50 AM48 °FPassing clouds.3 mph94%30.09 "Hg5 mi
5:20 AM48 °FPassing clouds.2 mph94%30.07 "Hg5 mi
4:50 AM48 °FPassing clouds.2 mph94%30.07 "HgN/A
4:20 AM48 °FPassing clouds.2 mph94%30.07 "HgN/A
3:50 AM48 °FPassing clouds.1 mph94%30.07 "HgN/A
3:20 AM48 °FClear.2 mph94%30.07 "Hg10 mi
2:50 AM48 °FPassing clouds.3 mph94%30.07 "HgN/A
2:20 AM46 °FClear.1 mph93%30.07 "Hg10 mi
1:50 AM46 °FCool.2 mph93%30.07 "Hg6 mi
1:20 AM48 °FClear.5 mph87%30.07 "Hg10 mi
12:50 AM48 °FClear.2 mph87%30.07 "Hg10 mi
12:20 AM50 °FClear.5 mph88%30.07 "Hg10 mi
11:50 PM
Wed, Oct 7
50 °FPassing clouds.5 mph94%30.07 "HgN/A
11:20 PM52 °FPassing clouds.8 mph94%30.07 "HgN/A
10:50 PM52 °FPassing clouds.8 mph94%30.07 "HgN/A
10:20 PM52 °FPassing clouds.6 mph94%30.07 "HgN/A
9:50 PM52 °FPassing clouds.5 mph94%30.07 "HgN/A
9:20 PM52 °FPassing clouds.8 mph94%30.04 "HgN/A
8:50 PM52 °FPassing clouds.7 mph94%30.04 "HgN/A
8:20 PM52 °FPassing clouds.5 mph94%30.04 "HgN/A
7:50 PM52 °FScattered clouds.6 mph88%30.04 "HgN/A
7:20 PM52 °FScattered clouds.6 mph88%30.01 "HgN/A
Weather by CustomWeather, © 2015

See weather overviewHow to use our weather pages